Wind_Speed
40 40 38 37 36 37 37 36 35 32 31 28 29 30 30 30 30 29 29 29 29 30 30 30 31 32 33 34 35 36 37 37 37 39 39 41 42 43 44 45 47 48 49 51
39 39 38 38 37 36 35 34 33 33 30 27 30 31 30 29 28 28 28 28 29 29 30 30 31 32 33 34 35 36 36 37 38 39 40 41 42 44 45 47 48 49 50 51
39 38 39 40 35 34 33 32 32 31 27 28 30 30 29 29 28 27 27 28 29 29 30 31 32 32 33 34 35 35 36 37 38 40 41 42 44 45 46 48 49 50 51 52
39 39 41 35 32 32 32 31 31 29 28 28 28 29 29 28 27 27 27 28 29 30 31 32 32 32 33 34 35 36 37 38 39 40 42 43 45 46 48 49 50 50 51 52
41 40 39 34 30 30 31 30 30 29 28 28 29 28 27 27 27 27 28 28 29 30 31 32 32 33 34 35 35 37 37 38 39 41 43 44 46 47 48 49 49 51 52 53
41 40 38 33 31 31 32 30 28 29 28 28 29 28 26 27 27 28 28 28 29 30 30 31 32 33 34 35 36 37 38 39 41 42 44 45 46 47 48 49 50 51 53 55
41 40 38 34 32 32 32 28 28 29 28 28 27 26 27 28 28 28 28 28 29 29 30 31 32 34 35 36 37 38 39 40 42 43 44 45 46 47 48 50 51 53 55 57
40 40 36 33 32 31 29 29 29 28 28 27 27 27 27 27 28 28 28 29 29 30 31 32 33 35 35 36 37 39 40 41 42 44 44 45 46 47 49 51 53 55 57 60
38 35 32 31 30 29 30 29 28 28 27 27 27 27 27 27 28 28 29 29 30 31 32 33 34 35 36 37 38 39 41 42 43 43 44 45 47 48 50 53 55 57 60 62
38 35 33 31 30 30 29 29 28 27 28 28 28 28 28 29 29 29 30 30 31 32 33 34 35 35 36 37 39 40 41 41 42 43 45 46 48 50 52 55 57 60 62 64
37 35 34 33 31 30 30 30 29 29 29 29 29 29 29 30 30 30 31 31 32 33 34 34 35 36 37 38 39 40 40 41 43 44 46 48 49 52 54 57 60 63 65 67
36 34 34 32 31 31 31 30 30 30 30 30 30 30 30 30 31 31 32 32 33 34 34 35 36 37 37 38 39 40 41 43 44 46 47 49 52 54 57 60 62 65 67 69
35 35 35 34 33 32 31 31 31 30 30 30 31 31 31 31 32 32 33 33 33 34 35 36 36 37 38 38 39 41 43 44 46 48 50 52 55 58 60 62 64 67 69 70
37 36 36 34 33 33 32 32 31 31 31 31 31 32 32 32 32 33 33 33 34 35 35 36 37 38 38 39 41 43 44 46 48 51 53 56 58 61 63 65 66 68 70 71
37 36 35 35 34 33 33 32 32 31 31 31 31 32 32 33 33 33 33 34 34 35 36 37 38 39 39 41 43 45 47 49 51 53 56 59 61 63 65 67 69 70 71 72
36 36 35 34 34 33 33 32 32 32 31 31 31 32 32 32 32 33 33 34 35 36 37 38 39 40 41 43 45 47 49 51 53 56 58 60 63 65 67 69 71 71 72 73
35 34 34 33 33 33 33 32 32 32 31 31 31 31 31 32 32 33 34 35 36 37 38 39 40 41 43 45 47 49 51 53 56 58 60 62 65 67 69 71 72 72 73 73
34 33 33 33 33 33 32 32 32 31 31 31 31 31 32 32 32 33 34 35 36 37 38 40 42 44 45 47 49 51 53 55 58 60 62 65 67 69 71 72 73 73 73 71
32 32 32 32 33 32 32 31 31 31 31 31 31 31 32 32 33 34 35 36 37 38 40 42 44 45 47 49 51 53 55 57 59 62 64 67 69 71 72 73 73 73 71 68
31 31 31 31 31 31 31 30 30 31 31 31 31 32 32 33 34 35 36 37 39 40 42 44 45 47 49 51 53 55 57 59 62 64 67 70 71 72 73 73 72 70 67 65
30 30 30 30 30 30 30 30 30 31 31 31 32 32 33 34 35 36 37 39 41 42 44 46 47 49 51 53 55 57 59 61 64 67 70 72 72 72 72 72 69 67 64 61
29 29 29 29 29 29 30 30 31 31 31 32 33 33 34 35 36 38 39 41 43 44 46 47 49 51 53 55 56 59 61 65 68 70 71 71 71 71 71 69 66 62 59 57
29 29 29 29 29 29 30 31 31 32 32 33 34 35 36 37 38 40 41 43 45 46 47 49 50 52 54 56 59 62 65 68 70 71 71 70 70 70 68 64 61 57 55 53
28 28 29 29 29 30 30 31 32 33 34 34 35 36 37 39 40 42 43 45 46 47 48 50 52 54 57 59 62 65 68 69 70 70 69 69 69 67 63 59 56 53 51 49
28 28 29 29 30 31 31 32 33 34 35 36 36 38 39 40 41 43 44 45 46 48 50 52 54 57 59 62 65 67 68 69 69 68 67 66 65 62 58 54 51 49 47 45
29 29 30 31 31 32 33 33 34 35 36 37 38 38 40 41 42 43 44 46 47 50 52 54 56 59 62 64 66 67 67 67 66 65 64 62 59 56 53 50 47 45 43 41
29 30 30 31 32 32 33 34 35 35 36 37 38 39 40 42 43 44 45 47 49 51 53 56 58 61 63 65 65 65 64 63 63 62 60 57 54 51 48 46 43 41 39 37
Wind_Direction
229 234 236 238 240 243 248 252 255 258 260 263 264 265 265 265 265 265 265 264 264 264 265 267 268 269 271 272 273 275 277 280 281 283 285 287 289 290 292 293 295 296 297 298
230 233 236 238 240 243 246 250 254 257 260 262 262 264 265 266 267 266 266 265 264 264 266 268 270 271 272 274 275 278 280 282 284 286 287 288 290 291 293 294 296 297 298 299
232 234 237 238 239 243 247 250 254 257 260 259 261 264 265 265 266 265 264 264 264 264 266 268 270 271 273 275 277 280 282 284 285 286 288 290 291 293 294 295 296 297 298 299
232 233 237 240 239 242 246 249 253 256 257 259 261 262 263 265 266 265 265 265 266 267 268 269 271 273 275 277 280 281 282 284 285 287 289 291 292 294 295 296 297 298 299 300
231 235 238 239 239 242 246 249 252 255 256 257 259 262 264 265 265 266 266 267 269 270 270 272 273 276 278 280 281 282 283 284 286 288 290 291 293 294 295 296 297 298 299 300
232 236 239 238 239 243 248 250 252 255 256 257 260 263 264 265 266 267 269 270 271 272 273 275 276 278 279 281 282 283 284 285 287 289 291 292 293 294 295 296 298 299 300 301
232 237 240 241 241 245 248 252 251 253 255 257 259 262 263 265 268 269 271 272 273 274 276 277 279 280 281 282 283 283 285 287 289 290 292 293 294 295 296 297 299 300 301 302
233 237 240 241 242 245 249 250 251 253 255 256 258 261 265 267 268 270 271 273 275 276 278 280 281 281 282 283 284 286 287 289 290 291 293 294 295 296 297 299 300 301 302 303
235 238 241 242 244 244 247 250 252 253 255 256 259 262 265 268 270 272 273 274 276 278 280 281 283 283 284 285 286 287 289 290 292 293 294 295 296 298 299 300 301 302 303 304
232 234 237 240 243 245 246 249 252 254 256 257 260 263 267 270 271 273 275 276 279 281 283 284 284 285 286 287 288 289 291 292 293 294 296 297 298 299 301 302 303 304 304 305
232 233 236 239 242 245 247 250 253 256 258 260 262 265 268 270 271 274 277 279 281 283 284 285 285 286 287 288 290 291 292 293 294 296 297 299 300 301 302 303 304 305 306 306
231 233 237 240 243 245 248 251 253 256 259 261 264 267 269 270 272 276 279 281 283 284 284 285 286 287 289 290 291 292 293 295 296 297 299 300 301 302 304 305 306 306 306 306
232 234 237 240 242 245 249 251 254 258 261 264 267 269 270 271 274 277 280 281 282 283 284 286 287 289 290 291 293 294 295 296 298 299 300 301 302 303 304 305 306 307 307 307
234 237 239 240 243 246 250 253 256 260 264 267 269 270 271 273 275 277 279 281 283 284 285 287 289 290 292 293 294 296 297 298 300 300 301 302 303 304 305 306 307 307 307 307
236 238 240 241 244 247 250 254 258 261 265 268 269 270 272 273 275 277 279 281 283 285 286 288 290 292 293 295 296 298 299 300 301 302 303 304 304 305 306 307 308 308 308 308
237 238 241 243 245 248 251 255 258 262 265 267 268 270 272 273 275 278 280 282 284 285 288 290 291 293 295 296 298 299 300 301 303 304 305 305 306 307 307 308 309 309 309 308
238 241 243 245 247 250 252 255 259 261 264 266 268 270 272 273 276 278 280 282 285 287 289 291 292 294 296 297 299 300 301 303 304 306 306 307 308 308 308 309 309 309 309 309
240 242 244 246 249 251 253 256 258 261 263 266 268 270 272 274 276 279 281 284 286 288 290 291 293 295 297 298 300 301 303 304 306 307 308 308 309 309 309 310 309 309 309 309
240 242 244 247 249 251 254 256 258 261 263 266 269 270 272 275 278 281 283 285 287 289 291 293 295 296 298 299 301 302 304 305 306 308 309 309 310 310 310 310 310 310 309 309
240 243 245 248 249 251 253 256 259 261 264 267 269 271 274 276 279 282 284 286 288 290 292 294 296 297 299 301 302 304 305 306 307 309 309 310 311 311 311 311 310 310 309 309
240 243 245 247 249 251 254 256 258 260 263 266 269 272 274 277 280 283 285 287 290 292 294 295 297 299 300 302 303 305 306 307 309 309 310 310 311 311 311 311 311 310 309 309
240 242 244 246 249 252 254 256 258 261 264 267 270 273 275 279 282 284 287 289 291 293 295 297 298 300 301 303 305 306 307 308 309 310 310 310 311 311 312 311 311 310 310 310
241 242 245 247 250 252 255 257 260 262 265 268 271 274 277 280 283 286 288 291 293 294 296 298 299 301 302 304 306 307 308 309 310 310 310 311 311 312 312 311 311 310 310 310
242 244 245 248 251 254 256 259 262 265 268 271 273 276 279 282 285 288 290 292 294 295 297 299 300 302 304 305 307 308 309 310 311 311 311 311 312 312 312 311 311 310 310 310
243 245 247 250 253 256 259 262 264 267 270 272 276 279 281 284 287 289 291 293 295 296 298 300 302 303 305 307 308 309 310 311 311 311 311 312 312 312 312 311 310 310 310 310
246 248 250 252 255 258 261 263 266 268 271 274 277 280 283 286 288 291 292 294 296 298 300 301 303 305 307 308 309 310 311 312 312 312 313 313 313 313 312 311 311 310 310 310
248 250 252 254 257 260 262 264 267 269 272 276 279 282 285 288 290 292 293 295 297 300 302 303 305 307 308 309 310 311 312 312 313 313 313 313 313 313 312 312 311 310 310 310
Height
5660 5664 5669 5673 5676 5679 5680 5683 5685 5688 5689 5692 5690 5690 5691 5691 5692 5693 5694 5694 5694 5694 5694 5695 5694 5694 5694 5693 5692 5690 5689 5687 5685 5682 5679 5676 5673 5669 5665 5661 5657 5652 5647 5642
5651 5655 5659 5662 5666 5669 5672 5675 5677 5678 5681 5683 5681 5681 5682 5683 5684 5684 5685 5685 5686 5686 5686 5686 5686 5685 5684 5683 5682 5681 5679 5677 5674 5672 5669 5666 5662 5658 5654 5650 5645 5640 5635 5630
5643 5647 5649 5652 5659 5662 5665 5667 5669 5670 5675 5673 5673 5673 5674 5675 5676 5676 5677 5677 5677 5678 5678 5678 5677 5676 5675 5674 5673 5671 5669 5667 5664 5661 5658 5655 5651 5647 5643 5638 5633 5628 5623 5617
5634 5638 5639 5650 5652 5654 5656 5659 5661 5663 5664 5665 5665 5666 5666 5667 5668 5668 5669 5669 5669 5669 5669 5669 5668 5667 5666 5665 5663 5661 5659 5657 5654 5651 5647 5644 5640 5636 5631 5626 5621 5616 5610 5605
5625 5628 5633 5640 5645 5647 5648 5651 5653 5654 5656 5657 5657 5658 5659 5659 5660 5660 5660 5661 5661 5660 5660 5660 5659 5658 5657 5655 5653 5651 5649 5646 5643 5640 5636 5632 5628 5624 5619 5614 5609 5604 5598 5592
5617 5620 5625 5634 5637 5638 5641 5643 5646 5646 5647 5648 5649 5650 5652 5651 5652 5652 5652 5652 5652 5652 5651 5651 5650 5648 5647 5645 5643 5641 5638 5635 5632 5629 5625 5621 5617 5612 5607 5602 5596 5591 5585 5578
5608 5612 5617 5624 5628 5630 5634 5638 5637 5638 5639 5640 5641 5643 5644 5643 5644 5644 5644 5644 5643 5643 5642 5642 5640 5639 5637 5635 5633 5630 5627 5624 5621 5617 5613 5609 5604 5600 5595 5589 5584 5578 5572 5565
5599 5604 5613 5617 5619 5623 5626 5627 5628 5630 5632 5633 5634 5634 5635 5635 5635 5636 5635 5635 5635 5634 5633 5632 5631 5629 5627 5625 5622 5619 5616 5613 5610 5606 5602 5597 5592 5587 5582 5576 5570 5564 5557 5550
5595 5602 5606 5608 5611 5614 5616 5618 5620 5622 5624 5625 5626 5626 5627 5627 5627 5627 5627 5627 5626 5625 5624 5622 5620 5619 5616 5614 5611 5608 5605 5602 5598 5594 5589 5584 5580 5574 5568 5562 5556 5549 5542 5534
5586 5592 5596 5599 5602 5605 5608 5610 5612 5614 5616 5617 5618 5618 5619 5619 5619 5619 5618 5618 5617 5616 5614 5612 5610 5608 5606 5603 5600 5597 5594 5590 5586 5582 5577 5572 5567 5561 5555 5548 5541 5534 5526 5518
5577 5583 5587 5590 5594 5597 5599 5602 5604 5606 5607 5608 5609 5610 5610 5610 5610 5610 5609 5608 5607 5606 5604 5602 5600 5598 5595 5592 5589 5586 5582 5578 5574 5569 5564 5559 5554 5547 5541 5534 5525 5518 5509 5501
5571 5576 5579 5583 5586 5588 5590 5593 5595 5596 5598 5599 5600 5601 5601 5601 5601 5601 5600 5599 5597 5596 5594 5592 5589 5587 5584 5581 5578 5574 5570 5566 5561 5557 5551 5546 5540 5534 5526 5519 5510 5501 5491 5482
5562 5566 5569 5573 5576 5579 5582 5584 5586 5588 5589 5590 5591 5592 5592 5592 5591 5591 5590 5589 5587 5585 5583 5581 5578 5576 5573 5570 5566 5562 5558 5553 5549 5544 5538 5532 5525 5519 5512 5504 5495 5485 5475 5465
5553 5556 5560 5565 5568 5571 5573 5575 5577 5579 5580 5581 5582 5582 5582 5582 5581 5581 5580 5578 5577 5575 5573 5570 5567 5565 5561 5558 5554 5550 5545 5541 5535 5530 5523 5517 5510 5503 5495 5487 5480 5470 5459 5448
5544 5548 5552 5556 5559 5562 5564 5566 5568 5570 5571 5571 5572 5572 5572 5572 5571 5570 5569 5568 5566 5564 5562 5559 5556 5553 5550 5546 5542 5537 5533 5527 5521 5515 5508 5501 5494 5486 5478 5470 5461 5452 5442 5431
5535 5539 5543 5547 5550 5552 5555 5557 5559 5560 5561 5562 5562 5562 5562 5562 5561 5560 5559 5557 5556 5553 5551 5548 5545 5542 5538 5534 5529 5525 5519 5513 5507 5500 5493 5485 5477 5469 5460 5452 5442 5433 5423 5412
5526 5530 5534 5538 5541 5543 5546 5548 5549 5550 5551 5552 5552 5552 5552 5551 5551 5550 5548 5547 5545 5542 5540 5537 5533 5530 5526 5521 5516 5511 5506 5499 5492 5485 5477 5469 5460 5452 5443 5433 5424 5414 5404 5394
5519 5522 5525 5529 5531 5534 5536 5538 5539 5541 5542 5542 5542 5542 5542 5541 5540 5539 5538 5536 5533 5531 5528 5525 5521 5517 5513 5508 5503 5498 5492 5485 5478 5470 5462 5453 5444 5434 5425 5415 5405 5395 5386 5376
5510 5513 5516 5519 5522 5524 5526 5528 5530 5531 5532 5532 5532 5532 5532 5531 5530 5529 5527 5525 5522 5519 5516 5513 5509 5504 5500 5495 5489 5483 5477 5470 5463 5454 5446 5437 5427 5417 5407 5397 5387 5376 5367 5358
5501 5504 5507 5510 5513 5515 5517 5519 5520 5521 5522 5522 5522 5522 5522 5521 5519 5518 5516 5513 5511 5508 5504 5500 5496 5491 5486 5481 5475 5469 5462 5455 5447 5439 5429 5420 5410 5400 5389 5379 5368 5358 5349 5340
5493 5496 5499 5501 5504 5506 5508 5509 5511 5511 5512 5512 5512 5512 5511 5510 5508 5507 5504 5502 5499 5495 5491 5487 5483 5478 5473 5467 5461 5454 5447 5439 5431 5422 5412 5402 5392 5382 5371 5361 5350 5341 5332 5323
5485 5487 5490 5493 5495 5497 5498 5500 5501 5502 5502 5502 5502 5501 5500 5499 5497 5495 5493 5490 5486 5483 5479 5474 5469 5464 5459 5452 5446 5439 5431 5423 5414 5404 5394 5384 5374 5364 5354 5343 5333 5324 5316 5308
5476 5479 5482 5484 5486 5488 5489 5490 5491 5492 5492 5492 5492 5491 5489 5488 5486 5484 5481 5478 5474 5470 5465 5461 5456 5450 5444 5438 5431 5423 5415 5406 5396 5386 5376 5366 5356 5346 5336 5327 5317 5309 5301 5294
5468 5470 5473 5475 5477 5478 5480 5481 5481 5482 5482 5481 5481 5480 5478 5476 5474 5471 5468 5465 5461 5457 5452 5447 5442 5436 5429 5422 5415 5407 5398 5388 5378 5368 5358 5348 5338 5328 5319 5310 5302 5295 5288 5281
5459 5462 5464 5466 5468 5469 5470 5471 5471 5471 5471 5470 5469 5468 5466 5464 5462 5459 5455 5452 5448 5443 5439 5433 5427 5421 5414 5407 5398 5390 5380 5371 5361 5351 5341 5331 5321 5312 5303 5295 5288 5281 5275 5268
5451 5453 5455 5457 5458 5459 5460 5461 5461 5461 5460 5459 5458 5457 5454 5452 5449 5446 5443 5439 5435 5430 5425 5419 5413 5406 5398 5390 5382 5373 5363 5353 5344 5334 5324 5315 5305 5297 5289 5282 5275 5269 5263 5257
5442 5444 5446 5447 5448 5449 5450 5450 5450 5450 5449 5448 5447 5445 5442 5440 5437 5433 5430 5426 5421 5416 5410 5404 5397 5390 5382 5374 5365 5356 5346 5337 5328 5318 5309 5300 5292 5284 5277 5270 5263 5257 5252 5247